• Join FlightAware (Why Join?)
  • Login
  • US Flag 
11:05PM EST


 

Airport Tracker/Info


-or-


 

Live Flight TrackerFlight Track Log ✈ AAL1459 ✈ 03-Nov-2013 ✈ KORD - KRNO

Flight Track Log - Related Links

Times and Time Zones

All times are in EST time to prevent confusion due to time zone crossing. See the AAL1459 flight status page for this flight to view local times or setup timezone preferences in your user account.

Time Position Orientation Groundspeed Altitude Reporting Facility
EST Latitude Longitude Course Direction KTS MPH feet Rate Location/Type
06:56PM 41.9500 -87.9333 270° West 191 220 2,400  Level Chicago TRACON
06:57PM 41.9667 -88.0167 285° West 249 287 3,700 2,160 Climbing Chicago TRACON
06:58PM 42.0065 -88.3129 282° West  Level Estimated
06:58PM 42.0017 -88.1500 289° West 259 298 7,800  Level Chicago Center
06:59PM 42.0490 -88.4361 295° West  Level FlightAware Approximate
06:59PM 42.0261 -88.2497 288° West 276 318 10,500  Level Chicago Center
07:00PM 42.0567 -88.5717 270° West  Level Estimated
07:00PM 42.0547 -88.3614 289° West 314 361 12,000  Level Chicago Center
07:01PM 42.0642 -88.7073 270° West  Level Estimated
07:01PM 42.0894 -88.5067 288° West 341 392 15,300  Level Chicago Center
07:02PM 42.1197 -88.6286 289° West 346 398 17,800 2,220 Climbing Chicago Center
07:04PM 42.1514 -88.7597 288° West 364 419 20,000 2,220 Climbing Chicago Center
07:05PM 42.1600 -88.9058 275° West 384 442 22,400 1,980 Climbing Chicago Center
07:06PM 42.1569 -89.0494 268° West 382 440 24,200 2,220 Climbing Chicago Center
07:07PM 42.1533 -89.1928 268° West 384 442 27,100 2,160 Climbing Chicago Center
07:08PM 42.1486 -89.3319 267° West 374 430 28,700 1,560 Climbing Chicago Center
07:09PM 42.1447 -89.4986 268° West 371 427 30,400 1,440 Climbing Chicago Center
07:10PM 42.1411 -89.6411 268° West 379 436 31,700 1,200 Climbing Chicago Center
07:11PM 42.1372 -89.7869 268° West 387 445 33,000 1,320 Climbing Chicago Center
07:12PM 42.1319 -89.9294 267° West 380 437 34,500 1,200 Climbing Chicago Center
07:13PM 42.1422 -90.0672 276° West 382 440 35,600 1,200 Climbing Chicago Center
07:14PM 42.1589 -90.2078 279° West 381 438 37,000 1,080 Climbing Chicago Center
07:15PM 42.1792 -90.3692 280° West 371 427 37,900 480 Climbing Chicago Center
07:16PM 42.1972 -90.5014 280° West 365 420 38,000  Climbing Chicago Center
07:17PM 42.2139 -90.6389 279° West 371 427 38,000  Level Chicago Center
07:18PM 42.2308 -90.7747 280° West 370 426 38,000  Level Chicago Center
07:19PM 42.2483 -90.9103 280° West 370 426 38,000  Level Chicago Center
07:20PM 42.2633 -91.0478 278° West 373 429 38,000  Level Chicago Center
07:21PM 42.2833 -91.2094 280° West 368 423 38,000  Level Chicago Center
07:22PM 42.3008 -91.3447 280° West 367 422 38,000  Level Chicago Center
07:23PM 42.3153 -91.4819 278° West 368 423 38,000  Level Chicago Center
07:24PM 42.3314 -91.6158 279° West 365 420 38,000  Level Chicago Center
07:25PM 42.3475 -91.7514 279° West 365 420 38,000  Level Chicago Center
07:26PM 42.3622 -91.8864 278° West 363 418 38,000  Level Chicago Center
07:27PM 42.3806 -92.0483 279° West 364 419 38,000  Level Chicago Center
07:28PM 42.3956 -92.1847 279° West 367 422 38,000  Level Chicago Center
07:29PM 42.4117 -92.3208 279° West 368 423 38,000  Level Chicago Center
07:30PM 42.4256 -92.4594 278° West 372 428 38,000  Level Chicago Center
07:31PM 42.4406 -92.5969 278° West 373 429 38,000  Level Chicago Center
07:32PM 42.4589 -92.7628 279° West 374 430 38,000  Level Chicago Center
07:34PM 42.4733 -92.9019 278° West 374 430 38,000  Level Chicago Center
07:35PM 42.4878 -93.0403 278° West 374 430 38,000  Level Chicago Center
07:35PM 42.5000 -93.1536 278° West 378 435 38,000  Level Minneapolis Center
07:36PM 42.5131 -93.2911 277° West 374 430 38,000  Level Minneapolis Center
07:37PM 42.5269 -93.4272 278° West 370 426 38,000  Level Minneapolis Center
07:38PM 42.5442 -93.5914 278° West 368 423 38,000  Level Minneapolis Center
07:39PM 42.5572 -93.7297 277° West 372 428 38,000  Level Minneapolis Center
07:41PM 42.5719 -93.8694 278° West 376 433 38,000  Level Minneapolis Center
07:42PM 42.5844 -94.0089 277° West 377 434 38,000  Level Minneapolis Center
07:43PM 42.5983 -94.1489 278° West 377 434 38,000  Level Minneapolis Center
07:44PM 42.6119 -94.2892 278° West 380 437 38,000  Level Minneapolis Center
07:45PM 42.6767 -94.4461 299° West 399 459 38,000  Level Minneapolis Center
07:46PM 42.7322 -94.5761 300° West 400 460 38,000  Level Minneapolis Center
07:47PM 42.7911 -94.7119 301° West 393 452 38,000  Level Minneapolis Center
07:48PM 42.8475 -94.8417 301° West 396 456 38,000  Level Minneapolis Center
07:49PM 42.9031 -94.9731 300° West 401 461 38,000  Level Minneapolis Center
07:50PM 42.9594 -95.1050 300° West 403 464 38,000  Level Minneapolis Center
07:51PM 43.0158 -95.2375 300° West 403 464 38,000  Level Minneapolis Center
07:52PM 43.0717 -95.3722 300° West 407 468 38,000  Level Minneapolis Center
07:53PM 43.1392 -95.5333 300° West 408 470 38,000  Level Minneapolis Center
07:54PM 43.1956 -95.6672 300° West 406 467 38,000  Level Minneapolis Center
07:55PM 43.2514 -95.8036 299° West 408 470 38,000  Level Minneapolis Center
07:56PM 43.3081 -95.9383 300° West 408 470 38,000  Level Minneapolis Center
07:57PM 43.3639 -96.0756 299° West 410 472 38,000  Level Minneapolis Center
07:58PM 43.4189 -96.2106 299° West 407 468 38,000  Level Minneapolis Center
07:59PM 43.4747 -96.3469 299° West 407 468 38,000  Level Minneapolis Center
08:00PM 43.5289 -96.4828 299° West 405 466 38,000  Level Minneapolis Center
08:01PM 43.5836 -96.6181 299° West 403 464 38,000  Level Minneapolis Center
08:02PM 43.6475 -96.7817 298° West 403 464 38,000  Level Minneapolis Center
08:03PM 43.6608 -96.9269 277° West 379 436 38,000  Level Minneapolis Center
08:04PM 43.6717 -97.0719 276° West 379 436 38,000  Level Minneapolis Center
08:05PM 43.6836 -97.2175 277° West 382 440 38,000  Level Minneapolis Center
08:06PM 43.6933 -97.3631 275° West 381 438 38,000  Level Minneapolis Center
08:07PM 43.7050 -97.5083 276° West 380 437 38,000  Level Minneapolis Center
08:08PM 43.7156 -97.6528 276° West 379 436 38,000  Level Minneapolis Center
08:09PM 43.7256 -97.7983 275° West 381 438 38,000  Level Minneapolis Center
08:10PM 43.7361 -97.9439 276° West 382 440 38,000  Level Minneapolis Center
08:11PM 43.7478 -98.1200 275° West 383 441 38,000  Level Minneapolis Center
08:12PM 43.7586 -98.2672 276° West 386 444 38,000  Level Minneapolis Center
08:13PM 43.7681 -98.4144 275° West 385 443 38,000  Level Minneapolis Center
08:14PM 43.7778 -98.5614 275° West 384 442 38,000  Level Minneapolis Center
08:15PM 43.7864 -98.6997 275° West 385 443 38,000  Level Minneapolis Center
08:16PM 43.7978 -98.8769 275° West 386 444 38,000  Level Minneapolis Center
08:17PM 43.8064 -99.0250 275° West 386 444 38,000  Level Minneapolis Center
08:18PM 43.8156 -99.1731 275° West 386 444 38,000  Level Minneapolis Center
08:20PM 43.8242 -99.3219 275° West 386 444 38,000  Level Minneapolis Center
08:21PM 43.8319 -99.4708 274° West 387 445 38,000  Level Minneapolis Center
08:22PM 43.8397 -99.6192 274° West 386 444 38,000  Level Minneapolis Center
08:23PM 43.8483 -99.7678 275° West 386 444 38,000  Level Minneapolis Center
08:24PM 43.8564 -99.9158 274° West 385 443 38,000  Level Minneapolis Center
08:25PM 43.8642 -100.0644 274° West 386 444 38,000  Level Minneapolis Center
08:26PM 43.8722 -100.2467 274° West 390 449 38,000  Level Minneapolis Center
08:27PM 43.8792 -100.3983 274° West 392 451 38,000  Level Minneapolis Center
08:28PM 43.8878 -100.5508 275° West 395 455 38,000  Level Minneapolis Center
08:29PM 43.8947 -100.7053 274° West 399 459 38,000  Level Minneapolis Center
08:30PM 43.9008 -100.8603 273° West 400 460 38,000  Level Minneapolis Center
08:31PM 43.9081 -101.0156 274° West 402 463 38,000  Level Minneapolis Center
08:32PM 43.9147 -101.1711 273° West 404 465 38,000  Level Minneapolis Center
08:34PM 43.9253 -101.4478 273° West 400 460 38,000  Level Denver Center
08:35PM 43.9317 -101.6019 273° West 401 461 38,000  Level Denver Center
08:36PM 43.9369 -101.7844 272° West 397 457 38,000  Level Denver Center
08:37PM 43.9389 -101.9333 271° West 392 451 38,000  Level Denver Center
08:38PM 43.9431 -102.0847 272° West 391 450 38,000  Level Denver Center
08:39PM 43.9492 -102.2369 273° West 392 451 38,000  Level Denver Center
08:40PM 43.9542 -102.3897 273° West 394 453 38,000  Level Denver Center
08:41PM 43.9586 -102.5417 272° West 395 455 38,000  Level Denver Center
08:42PM 43.9625 -102.6950 272° West 396 456 38,000  Level Denver Center
08:43PM 43.9683 -102.8822 273° West 400 460 38,000  Level Denver Center
08:44PM 43.9725 -103.0378 272° West 402 463 38,000  Level Denver Center
08:45PM 43.9758 -103.1919 272° West 402 463 38,000  Level Denver Center
08:46PM 43.9789 -103.3467 272° West 401 461 38,000  Level Denver Center
08:47PM 43.9828 -103.5039 272° West 405 466 38,000  Level Denver Center
08:48PM 43.9869 -103.6611 272° West 407 468 38,000  Level Denver Center
08:49PM 43.9886 -103.8219 271° West 414 476 38,000  Level Denver Center
08:50PM 43.9908 -103.9925 271° West 417 480 38,000  Level Denver Center
08:51PM 43.9928 -104.1525 271° West 416 479 38,000  Level Denver Center
08:52PM 43.9950 -104.3125 271° West 416 479 38,000  Level Denver Center
08:53PM 43.9967 -104.5044 271° West 415 478 38,000  Level Denver Center
08:54PM 43.9978 -104.6642 271° West 415 478 38,000  Level Denver Center
08:55PM 44.0003 -104.8225 271° West 414 476 38,000  Level Denver Center
08:56PM 44.0008 -104.9781 270° West 409 471 38,000  Level Denver Center
08:57PM 44.0014 -105.1336 270° West 406 467 38,000  Level Denver Center
08:58PM 44.0022 -105.2908 270° West 406 467 38,000  Level Denver Center
08:59PM 44.0033 -105.4811 271° West 409 471 38,000  Level Denver Center
09:00PM 44.0025 -105.6408 270° West 412 474 38,000  Level Denver Center
09:01PM 44.0031 -105.8031 270° West 415 478 38,000  Level Denver Center
09:03PM 44.0019 -105.9658 270° West 419 482 38,000  Level Denver Center
09:04PM 44.0011 -106.1294 270° West 422 486 38,000  Level Denver Center
09:05PM 43.9992 -106.2933 269° West 424 488 38,000  Level Denver Center
09:05PM 43.9983 -106.4242 270° West 425 489 38,000  Level Salt Lake Center
09:06PM 43.9594 -106.5764 251° West 416 479 38,000  Level Salt Lake Center
09:07PM 43.9167 -106.7269 249° West 418 481 38,000  Level Salt Lake Center
09:08PM 43.8739 -106.8778 249° West 421 484 38,000  Level Salt Lake Center
09:09PM 43.8303 -107.0331 249° West 429 494 38,000  Level Salt Lake Center
09:10PM 43.7864 -107.1842 248° West 426 490 38,000  Level Salt Lake Center
09:11PM 43.7433 -107.3353 249° West 423 487 38,000  Level Salt Lake Center
09:12PM 43.6931 -107.5150 249° West 419 482 38,000  Level Salt Lake Center
09:13PM 43.6492 -107.6658 248° West 422 486 38,000  Level Salt Lake Center
09:14PM 43.6056 -107.8164 248° West 423 487 38,000  Level Salt Lake Center
09:16PM 43.5619 -107.9642 248° West 420 483 38,000  Level Salt Lake Center
09:17PM 43.5181 -108.1133 248° West 419 482 38,000  Level Salt Lake Center
09:18PM 43.4747 -108.2619 248° West 418 481 38,000  Level Salt Lake Center
09:19PM 43.4322 -108.4094 248° West 417 480 38,000  Level Salt Lake Center
09:20PM 43.3925 -108.5558 250° West 412 474 38,000  Level Salt Lake Center
09:21PM 43.3514 -108.7008 249° West 410 472 38,000  Level Salt Lake Center
09:22PM 43.3094 -108.8428 248° West 404 465 38,000  Level Salt Lake Center
09:23PM 43.2675 -108.9878 248° West 408 470 38,000  Level Salt Lake Center
09:24PM 43.2172 -109.1633 249° West 412 474 38,000  Level Salt Lake Center
09:25PM 43.1753 -109.3072 248° West 409 471 38,000  Level Salt Lake Center
09:26PM 43.1339 -109.4486 248° West 403 464 38,000  Level Salt Lake Center
09:27PM 43.0925 -109.5900 248° West 402 463 38,000  Level Salt Lake Center
09:28PM 43.0511 -109.7300 248° West 398 458 38,000  Level Salt Lake Center
09:29PM 43.0111 -109.8647 248° West 403 464 38,000  Level Salt Lake Center
09:30PM 42.9631 -110.0253 248° West 407 468 38,000  Level Salt Lake Center
09:31PM 42.9219 -110.1608 248° West 405 466 38,000  Level Salt Lake Center
09:32PM 42.8742 -110.3206 248° West 407 468 38,000  Level Salt Lake Center
09:33PM 42.8322 -110.4594 248° West 411 473 38,000  Level Salt Lake Center
09:34PM 42.7894 -110.5964 247° West 411 473 38,000  Level Salt Lake Center
09:35PM 42.7411 -110.7561 248° West 410 472 38,000  Level Salt Lake Center
09:36PM 42.6947 -110.9036 247° West 408 470 38,000  Level Salt Lake Center
09:37PM 42.6558 -111.0258 247° West 411 473 38,000  Level Salt Lake Center
09:38PM 42.6014 -111.2011 247° West 421 484 38,000  Level Salt Lake Center
09:39PM 42.5547 -111.3497 247° West 428 493 38,000  Level Salt Lake Center
09:40PM 42.5083 -111.4944 247° West 422 486 38,000  Level Salt Lake Center
09:41PM 42.4622 -111.6411 247° West 425 489 38,000  Level Salt Lake Center
09:42PM 42.4158 -111.7872 247° West 426 490 38,000  Level Salt Lake Center
09:43PM 42.3686 -111.9322 246° West 424 488 38,000  Level Salt Lake Center
09:44PM 42.3203 -112.0783 246° West 426 490 38,000  Level Salt Lake Center
09:45PM 42.2733 -112.2236 246° West 425 489 38,000  Level Salt Lake Center
09:46PM 42.2167 -112.3981 246° West 426 490 38,000  Level Salt Lake Center
09:47PM 42.1686 -112.5403 246° West 421 484 38,000  Level Salt Lake Center
09:48PM 42.1197 -112.6828 245° Southwest 422 486 38,000  Level Salt Lake Center
09:49PM 42.0717 -112.8267 246° West 423 487 38,000  Level Salt Lake Center
09:50PM 42.0233 -112.9683 245° Southwest 420 483 38,000  Level Salt Lake Center
09:51PM 41.9753 -113.1089 245° Southwest 416 479 38,000  Level Salt Lake Center
09:52PM 41.9275 -113.2461 245° Southwest 409 471 38,000  Level Salt Lake Center
09:53PM 41.8797 -113.3831 245° Southwest 408 470 38,000  Level Salt Lake Center
09:54PM 41.8322 -113.5189 245° Southwest 405 466 38,000  Level Salt Lake Center
09:55PM 41.7764 -113.6794 245° Southwest 399 459 38,000  Level Salt Lake Center
09:56PM 41.7289 -113.8114 244° Southwest 396 456 38,000  Level Salt Lake Center
09:57PM 41.6819 -113.9447 245° Southwest 397 457 38,000  Level Salt Lake Center
09:58PM 41.6336 -114.0783 244° Southwest 399 459 38,000  Level Salt Lake Center
09:59PM 41.5869 -114.2117 245° Southwest 398 458 38,000  Level Salt Lake Center
10:00PM 41.5397 -114.3436 244° Southwest 396 456 38,000  Level Salt Lake Center
10:01PM 41.4917 -114.4750 244° Southwest 396 456 38,000  Level Salt Lake Center
10:03PM 41.4442 -114.6067 244° Southwest 396 456 38,000  Level Salt Lake Center
10:04PM 41.3878 -114.7639 244° Southwest 394 453 38,000  Level Salt Lake Center
10:05PM 41.3367 -114.8992 243° Southwest 396 456 38,000  Level Salt Lake Center
10:06PM 41.2922 -115.0261 245° Southwest 396 456 38,000  Level Salt Lake Center
10:07PM 41.2456 -115.1494 243° Southwest 391 450 38,000  Level Salt Lake Center
10:08PM 41.1919 -115.2939 244° Southwest 391 450 38,000  Level Salt Lake Center
10:09PM 41.1450 -115.4181 243° Southwest 393 452 38,000  Level Salt Lake Center
10:10PM 41.0906 -115.5661 244° Southwest 398 458 38,000  Level Salt Lake Center
10:11PM 41.0436 -115.6906 243° Southwest 397 457 38,000  Level Salt Lake Center
10:12PM 40.9961 -115.8156 243° Southwest 397 457 38,000  Level Salt Lake Center
10:13PM 40.9394 -115.9644 243° Southwest 403 464 38,000  Level Salt Lake Center
10:14PM 40.8908 -116.0939 244° Southwest 408 470 38,000  Level Salt Lake Center
10:15PM 40.8331 -116.2431 243° Southwest 410 472 38,000  Level Salt Lake Center
10:16PM 40.7836 -116.3714 243° Southwest 411 473 38,000  Level Salt Lake Center
10:17PM 40.7336 -116.4992 243° Southwest 410 472 38,000  Level Salt Lake Center
10:18PM 40.6769 -116.6472 243° Southwest 408 470 38,000  Level Salt Lake Center
10:19PM 40.6281 -116.7731 243° Southwest 406 467 38,000  Level Salt Lake Center
10:20PM 40.5703 -116.9178 242° Southwest 405 466 38,000  Level Salt Lake Center
10:21PM 40.5361 -117.0486 251° West 402 463 38,000  Level Salt Lake Center
10:22PM 40.4822 -117.1944 244° Southwest 404 465 38,000  Level Salt Lake Center
10:23PM 40.4242 -117.3153 238° Southwest 409 471 38,000  Level Salt Lake Center
10:24PM 40.3569 -117.4550 238° Southwest 407 468 38,000  Level Salt Lake Center
10:25PM 40.2986 -117.5742 237° Southwest 406 467 38,000 -60 Level Salt Lake Center
10:26PM 40.2400 -117.6944 237° Southwest 409 471 37,900 -540 Descending Salt Lake Center
10:27PM 40.1717 -117.8350 238° Southwest 410 472 36,900 -1,200 Descending Salt Lake Center
10:28PM 40.1117 -117.9583 238° Southwest 419 482 35,500 -1,620 Descending Salt Lake Center
10:29PM 40.0533 -118.0808 238° Southwest 394 453 33,600 -1,860 Descending Oakland Center
10:30PM 39.9944 -118.2008 237° Southwest 393 452 31,700 -2,040 Descending Oakland Center
10:32PM 39.9084 -118.3520 233° Southwest  Level FlightAware Approximate
10:33PM 39.8069 -118.5744 234° Southwest 384 442 25,500  Level Salt Lake Center
10:34PM 39.7500 -118.6875 237° Southwest 378 435 23,900 -1,740 Descending Salt Lake Center
10:36PM 39.6592 -118.8179 228° Southwest  Level FlightAware Approximate
10:37PM 39.5797 -119.0258 329° Northwest 375 432 18,600  Level Oakland Center
10:38PM 39.5264 -119.1311 237° Southwest 356 410 16,600 -1,980 Descending Oakland Center
10:39PM 39.4841 -119.1654 234° Southwest  Level FlightAware Approximate
10:39PM 39.4622 -119.2553 236° Southwest 349 402 14,600  Level Oakland Center
10:40PM 39.4108 -119.3553 236° Southwest 339 390 12,800 -1,740 Descending Oakland Center
10:41PM 39.3628 -119.4508 237° Southwest 327 376 11,100 -900 Descending Oakland Center
10:42PM 39.3342 -119.5450 249° West 302 348 11,000 -540 Descending Oakland Center
10:43PM 39.2947 -119.5921 329° Northwest  Level FlightAware Approximate
10:43PM 39.3133 -119.6228 251° West 261 300 10,100  Level Oakland Center
10:45PM 39.3042 -119.7594 265° West 215 247 9,000 -600 Descending Oakland Center
10:46PM 39.3569 -119.7769 346° North 217 250 8,300 -720 Descending Oakland Center